Time,TemperatureF,DewpointF,PressureIn,WindDirection,WindDirectionDegrees,WindSpeedMPH,WindSpeedGustMPH,Humidity,HourlyPrecipIn,Conditions,Clouds,dailyrainin,SoftwareType,DateUTC
2013-07-17 00:01:00,73.1,69.3,30.13,West,278,0.0,0.0,88,0.00,,,0.00,Wunderground v.1.15,2013-07-17 04:01:00,
2013-07-17 00:03:00,73.0,69.2,30.13,West,278,0.0,0.0,88,0.00,,,0.00,Wunderground v.1.15,2013-07-17 04:03:00,
2013-07-17 00:07:00,73.0,69.2,30.13,West,278,0.0,0.0,88,0.00,,,0.00,Wunderground v.1.15,2013-07-17 04:07:00,
2013-07-17 00:11:00,72.8,69.0,30.13,West,278,0.0,1.0,88,0.00,,,0.00,Wunderground v.1.15,2013-07-17 04:11:00,
2013-07-17 00:14:00,72.8,69.0,30.13,West,277,0.0,1.0,88,0.00,,,0.00,Wunderground v.1.15,2013-07-17 04:14:00,
2013-07-17 00:21:00,72.6,68.8,30.12,West,277,0.0,0.0,88,0.00,,,0.00,Wunderground v.1.15,2013-07-17 04:21:00,
2013-07-17 00:26:00,72.5,68.7,30.12,West,278,0.0,1.0,88,0.00,,,0.00,Wunderground v.1.15,2013-07-17 04:26:00,
2013-07-17 00:32:00,72.4,68.6,30.12,West,277,0.0,0.0,88,0.00,,,0.00,Wunderground v.1.15,2013-07-17 04:32:00,
2013-07-17 00:38:00,72.2,68.4,30.13,West,277,0.0,1.0,88,0.00,,,0.00,Wunderground v.1.15,2013-07-17 04:38:00,
2013-07-17 00:44:00,72.1,68.3,30.13,West,278,0.0,0.0,88,0.00,,,0.00,Wunderground v.1.15,2013-07-17 04:44:00,
2013-07-17 00:51:00,72.0,68.2,30.12,West,278,0.0,0.0,88,0.00,,,0.00,Wunderground v.1.15,2013-07-17 04:51:00,
2013-07-17 00:57:00,71.9,68.2,30.12,West,278,0.0,0.0,88,0.00,,,0.00,Wunderground v.1.15,2013-07-17 04:57:00,
2013-07-17 00:59:00,71.9,68.2,30.12,West,278,0.0,0.0,88,0.00,,,0.00,Wunderground v.1.15,2013-07-17 04:59:00,
2013-07-17 01:04:00,71.8,68.1,30.12,West,278,0.0,0.0,88,0.00,,,0.00,Wunderground v.1.15,2013-07-17 05:04:00,
2013-07-17 01:09:00,71.7,68.0,30.12,West,277,0.0,0.0,88,0.00,,,0.00,Wunderground v.1.15,2013-07-17 05:09:00,
2013-07-17 01:14:00,71.7,68.0,30.12,West,278,0.0,0.0,88,0.00,,,0.00,Wunderground v.1.15,2013-07-17 05:14:00,
2013-07-17 01:21:00,71.5,67.8,30.12,West,277,0.0,0.0,88,0.00,,,0.00,Wunderground v.1.15,2013-07-17 05:21:00,
2013-07-17 01:27:00,71.4,67.7,30.12,West,278,0.0,0.0,88,0.00,,,0.00,Wunderground v.1.15,2013-07-17 05:27:00,
2013-07-17 01:33:00,71.3,67.6,30.12,West,277,0.0,0.0,88,0.00,,,0.00,Wunderground v.1.15,2013-07-17 05:33:00,
2013-07-17 01:39:00,71.2,67.5,30.12,West,278,0.0,1.0,88,0.00,,,0.00,Wunderground v.1.15,2013-07-17 05:39:00,
2013-07-17 01:46:00,71.1,67.4,30.12,West,278,1.0,1.0,88,0.00,,,0.00,Wunderground v.1.15,2013-07-17 05:46:00,
2013-07-17 01:52:00,71.0,67.3,30.12,West,277,0.0,1.0,88,0.00,,,0.00,Wunderground v.1.15,2013-07-17 05:52:00,
2013-07-17 01:57:00,70.9,67.2,30.12,West,279,0.0,1.0,88,0.00,,,0.00,Wunderground v.1.15,2013-07-17 05:57:00,
2013-07-17 02:03:00,70.8,67.1,30.12,West,279,0.0,1.0,88,0.00,,,0.00,Wunderground v.1.15,2013-07-17 06:03:00,
2013-07-17 02:08:00,70.8,67.1,30.12,West,281,0.0,1.0,88,0.00,,,0.00,Wunderground v.1.15,2013-07-17 06:08:00,
2013-07-17 02:14:00,70.7,67.0,30.12,West,281,0.0,1.0,88,0.00,,,0.00,Wunderground v.1.15,2013-07-17 06:14:00,
2013-07-17 02:21:00,70.7,67.0,30.12,West,281,0.0,0.0,88,0.00,,,0.00,Wunderground v.1.15,2013-07-17 06:21:00,
2013-07-17 02:26:00,70.7,67.0,30.11,West,280,0.0,0.0,88,0.00,,,0.00,Wunderground v.1.15,2013-07-17 06:26:00,
2013-07-17 02:32:00,70.7,67.0,30.11,West,280,0.0,1.0,88,0.00,,,0.00,Wunderground v.1.15,2013-07-17 06:32:00,
2013-07-17 02:38:00,70.6,66.9,30.11,West,280,0.0,1.0,88,0.00,,,0.00,Wunderground v.1.15,2013-07-17 06:38:00,
2013-07-17 02:43:00,70.6,66.9,30.12,West,280,0.0,0.0,88,0.00,,,0.00,Wunderground v.1.15,2013-07-17 06:43:00,
2013-07-17 02:49:00,70.6,66.9,30.11,West,280,0.0,0.0,88,0.00,,,0.00,Wunderground v.1.15,2013-07-17 06:49:00,
2013-07-17 02:56:00,70.6,66.9,30.11,West,281,0.0,0.0,88,0.00,,,0.00,Wunderground v.1.15,2013-07-17 06:56:00,
2013-07-17 03:02:00,70.5,66.8,30.11,West,281,0.0,1.0,88,0.00,,,0.00,Wunderground v.1.15,2013-07-17 07:02:00,
2013-07-17 03:07:00,70.5,66.8,30.11,West,281,1.0,1.0,88,0.00,,,0.00,Wunderground v.1.15,2013-07-17 07:07:00,
2013-07-17 03:14:00,70.5,66.8,30.11,West,281,0.0,0.0,88,0.00,,,0.00,Wunderground v.1.15,2013-07-17 07:14:00,
2013-07-17 03:19:00,70.4,66.7,30.12,West,281,0.0,0.0,88,0.00,,,0.00,Wunderground v.1.15,2013-07-17 07:19:00,
2013-07-17 03:26:00,70.3,66.6,30.11,West,280,0.0,0.0,88,0.00,,,0.00,Wunderground v.1.15,2013-07-17 07:26:00,
2013-07-17 03:32:00,70.2,66.5,30.11,West,281,0.0,0.0,88,0.00,,,0.00,Wunderground v.1.15,2013-07-17 07:32:00,
2013-07-17 03:37:00,70.1,66.4,30.12,West,280,0.0,0.0,88,0.00,,,0.00,Wunderground v.1.15,2013-07-17 07:37:00,
2013-07-17 03:43:00,70.0,66.3,30.12,West,281,0.0,0.0,88,0.00,,,0.00,Wunderground v.1.15,2013-07-17 07:43:00,
2013-07-17 03:49:00,70.0,66.3,30.12,West,281,0.0,0.0,88,0.00,,,0.00,Wunderground v.1.15,2013-07-17 07:49:00,
2013-07-17 03:56:00,70.0,66.3,30.11,West,280,0.0,0.0,88,0.00,,,0.00,Wunderground v.1.15,2013-07-17 07:56:00,
2013-07-17 04:02:00,69.9,66.2,30.11,West,281,0.0,0.0,88,0.00,,,0.00,Wunderground v.1.15,2013-07-17 08:02:00,
2013-07-17 04:07:00,69.9,66.2,30.11,West,280,0.0,0.0,88,0.00,,,0.00,Wunderground v.1.15,2013-07-17 08:07:00,
2013-07-17 04:13:00,69.8,66.1,30.11,West,280,0.0,0.0,88,0.00,,,0.00,Wunderground v.1.15,2013-07-17 08:13:00,
2013-07-17 04:19:00,69.8,66.1,30.12,West,281,0.0,1.0,88,0.00,,,0.00,Wunderground v.1.15,2013-07-17 08:19:00,
2013-07-17 04:24:00,69.8,66.1,30.12,West,281,0.0,1.0,88,0.00,,,0.00,Wunderground v.1.15,2013-07-17 08:24:00,
2013-07-17 04:31:00,69.8,66.1,30.11,West,280,0.0,0.0,88,0.00,,,0.00,Wunderground v.1.15,2013-07-17 08:31:00,
2013-07-17 04:37:00,69.8,66.1,30.11,West,280,0.0,0.0,88,0.00,,,0.00,Wunderground v.1.15,2013-07-17 08:37:00,
2013-07-17 04:43:00,69.7,66.0,30.11,West,281,0.0,0.0,88,0.00,,,0.00,Wunderground v.1.15,2013-07-17 08:43:00,
2013-07-17 04:49:00,69.7,66.0,30.11,West,280,0.0,0.0,88,0.00,,,0.00,Wunderground v.1.15,2013-07-17 08:49:00,
2013-07-17 04:54:00,69.6,65.9,30.11,West,281,0.0,0.0,88,0.00,,,0.00,Wunderground v.1.15,2013-07-17 08:54:00,
2013-07-17 05:01:00,69.5,65.8,30.12,West,280,0.0,0.0,88,0.00,,,0.00,Wunderground v.1.15,2013-07-17 09:01:00,
2013-07-17 05:06:00,69.4,65.7,30.12,West,281,0.0,1.0,88,0.00,,,0.00,Wunderground v.1.15,2013-07-17 09:06:00,
2013-07-17 05:11:00,69.4,65.7,30.12,West,280,0.0,0.0,88,0.00,,,0.00,Wunderground v.1.15,2013-07-17 09:11:00,
2013-07-17 05:17:00,69.4,65.7,30.12,West,280,0.0,0.0,88,0.00,,,0.00,Wunderground v.1.15,2013-07-17 09:17:00,
2013-07-17 05:23:00,69.3,65.6,30.13,West,280,0.0,0.0,88,0.00,,,0.00,Wunderground v.1.15,2013-07-17 09:23:00,
2013-07-17 05:28:00,69.2,65.5,30.13,West,280,0.0,1.0,88,0.00,,,0.00,Wunderground v.1.15,2013-07-17 09:28:00,
2013-07-17 05:34:00,69.2,65.5,30.13,West,280,0.0,0.0,88,0.00,,,0.00,Wunderground v.1.15,2013-07-17 09:34:00,
2013-07-17 05:41:00,69.1,65.4,30.14,WNW,282,0.0,1.0,88,0.00,,,0.00,Wunderground v.1.15,2013-07-17 09:41:00,
2013-07-17 05:47:00,69.1,65.4,30.14,West,281,1.0,1.0,88,0.00,,,0.00,Wunderground v.1.15,2013-07-17 09:47:00,
2013-07-17 05:53:00,69.2,65.5,30.14,WNW,282,0.0,1.0,88,0.00,,,0.00,Wunderground v.1.15,2013-07-17 09:53:00,
2013-07-17 05:59:00,69.2,65.5,30.14,WNW,282,0.0,1.0,88,0.00,,,0.00,Wunderground v.1.15,2013-07-17 09:59:00,
2013-07-17 06:06:00,69.3,65.6,30.14,WNW,282,0.0,1.0,88,0.00,,,0.00,Wunderground v.1.15,2013-07-17 10:06:00,
2013-07-17 06:12:00,69.3,65.6,30.14,West,281,0.0,0.0,88,0.00,,,0.00,Wunderground v.1.15,2013-07-17 10:12:00,
2013-07-17 06:18:00,69.4,65.7,30.14,West,281,0.0,0.0,88,0.00,,,0.00,Wunderground v.1.15,2013-07-17 10:18:00,
2013-07-17 06:24:00,69.5,65.8,30.14,WNW,282,0.0,1.0,88,0.00,,,0.00,Wunderground v.1.15,2013-07-17 10:24:00,
2013-07-17 06:29:00,69.5,66.1,30.14,WNW,283,1.0,1.0,89,0.00,,,0.00,Wunderground v.1.15,2013-07-17 10:29:00,
2013-07-17 06:36:00,69.8,66.4,30.14,WNW,294,1.0,1.0,89,0.00,,,0.00,Wunderground v.1.15,2013-07-17 10:36:00,
2013-07-17 06:42:00,70.1,66.4,30.14,WNW,295,1.0,1.0,88,0.00,,,0.00,Wunderground v.1.15,2013-07-17 10:42:00,
2013-07-17 06:47:00,70.3,66.9,30.14,WNW,295,0.0,1.0,89,0.00,,,0.00,Wunderground v.1.15,2013-07-17 10:47:00,
2013-07-17 06:53:00,70.5,67.1,30.14,WNW,295,0.0,1.0,89,0.00,,,0.00,Wunderground v.1.15,2013-07-17 10:53:00,
2013-07-17 06:59:00,70.9,67.2,30.14,WNW,296,0.0,1.0,88,0.00,,,0.00,Wunderground v.1.15,2013-07-17 10:59:00,
2013-07-17 07:04:00,71.3,67.9,30.14,WNW,297,0.0,1.0,89,0.00,,,0.00,Wunderground v.1.15,2013-07-17 11:04:00,
2013-07-17 07:11:00,71.7,68.0,30.14,WNW,302,1.0,1.0,88,0.00,,,0.00,Wunderground v.1.15,2013-07-17 11:11:00,
2013-07-17 07:16:00,72.1,68.7,30.14,WNW,302,1.0,1.0,89,0.00,,,0.00,Wunderground v.1.15,2013-07-17 11:16:00,
2013-07-17 07:22:00,72.6,69.2,30.14,WNW,303,0.0,0.0,89,0.00,,,0.00,Wunderground v.1.15,2013-07-17 11:22:00,
2013-07-17 07:27:00,73.1,69.7,30.14,WNW,303,0.0,2.0,89,0.00,,,0.00,Wunderground v.1.15,2013-07-17 11:27:00,
2013-07-17 07:33:00,73.7,70.3,30.14,WNW,303,0.0,0.0,89,0.00,,,0.00,Wunderground v.1.15,2013-07-17 11:33:00,
2013-07-17 07:39:00,74.1,70.6,30.14,WNW,303,0.0,1.0,89,0.00,,,0.00,Wunderground v.1.15,2013-07-17 11:39:00,
2013-07-17 07:46:00,74.8,71.3,30.14,WNW,303,0.0,1.0,89,0.00,,,0.00,Wunderground v.1.15,2013-07-17 11:46:00,
2013-07-17 07:52:00,75.3,71.5,30.14,WNW,303,0.0,1.0,88,0.00,,,0.00,Wunderground v.1.15,2013-07-17 11:52:00,
2013-07-17 07:58:00,75.9,72.1,30.14,NW,315,1.0,1.0,88,0.00,,,0.00,Wunderground v.1.15,2013-07-17 11:58:00,
2013-07-17 08:04:00,76.5,72.3,30.14,WNW,303,1.0,3.0,87,0.00,,,0.00,Wunderground v.1.15,2013-07-17 12:04:00,
2013-07-17 08:11:00,77.2,72.7,30.14,WNW,290,2.0,2.0,86,0.00,,,0.00,Wunderground v.1.15,2013-07-17 12:11:00,
2013-07-17 08:17:00,77.7,72.8,30.14,WNW,292,2.0,2.0,85,0.00,,,0.00,Wunderground v.1.15,2013-07-17 12:17:00,
2013-07-17 08:23:00,78.4,73.5,30.14,SW,234,1.0,2.0,85,0.00,,,0.00,Wunderground v.1.15,2013-07-17 12:23:00,
2013-07-17 08:29:00,79.0,73.4,30.14,SW,234,1.0,2.0,83,0.00,,,0.00,Wunderground v.1.15,2013-07-17 12:29:00,
2013-07-17 08:36:00,79.4,72.7,30.14,SW,236,0.0,1.0,80,0.00,,,0.00,Wunderground v.1.15,2013-07-17 12:36:00,
2013-07-17 08:42:00,79.7,73.3,30.15,NNE,24,1.0,1.0,81,0.00,,,0.00,Wunderground v.1.15,2013-07-17 12:42:00,
2013-07-17 08:48:00,80.0,73.3,30.15,WNW,302,1.0,1.0,80,0.00,,,0.00,Wunderground v.1.15,2013-07-17 12:48:00,
2013-07-17 08:54:00,80.4,73.3,30.15,WNW,302,1.0,1.0,79,0.00,,,0.00,Wunderground v.1.15,2013-07-17 12:54:00,
2013-07-17 08:59:00,80.7,73.2,30.14,WNW,302,0.0,1.0,78,0.00,,,0.00,Wunderground v.1.15,2013-07-17 12:59:00,
2013-07-17 09:06:00,81.0,73.1,30.14,West,273,0.0,1.0,77,0.00,,,0.00,Wunderground v.1.15,2013-07-17 13:06:00,
2013-07-17 09:12:00,81.3,73.8,30.14,SSW,209,0.0,1.0,78,0.00,,,0.00,Wunderground v.1.15,2013-07-17 13:12:00,
2013-07-17 09:17:00,81.7,73.0,30.15,West,263,1.0,1.0,75,0.00,,,0.00,Wunderground v.1.15,2013-07-17 13:17:00,
2013-07-17 09:23:00,82.0,72.9,30.14,NNE,32,0.0,1.0,74,0.00,,,0.00,Wunderground v.1.15,2013-07-17 13:23:00,
2013-07-17 09:29:00,82.3,72.8,30.14,NNE,32,0.0,1.0,73,0.00,,,0.00,Wunderground v.1.15,2013-07-17 13:29:00,
2013-07-17 09:36:00,82.8,72.8,30.14,West,267,1.0,3.0,72,0.00,,,0.00,Wunderground v.1.15,2013-07-17 13:36:00,
2013-07-17 09:42:00,83.1,72.7,30.14,NW,321,1.0,1.0,71,0.00,,,0.00,Wunderground v.1.15,2013-07-17 13:42:00,
2013-07-17 09:48:00,83.2,72.4,30.14,NNE,13,1.0,2.0,70,0.00,,,0.00,Wunderground v.1.15,2013-07-17 13:48:00,
2013-07-17 09:54:00,83.3,72.5,30.14,NNE,25,1.0,2.0,70,0.00,,,0.00,Wunderground v.1.15,2013-07-17 13:54:00,
2013-07-17 10:01:00,83.6,73.2,30.13,NNE,14,1.0,1.0,71,0.00,,,0.00,Wunderground v.1.15,2013-07-17 14:01:00,
2013-07-17 10:06:00,83.8,74.6,30.13,SSW,208,1.0,2.0,74,0.00,,,0.00,Wunderground v.1.15,2013-07-17 14:06:00,
2013-07-17 10:12:00,84.3,73.9,30.13,West,263,1.0,1.0,71,0.00,,,0.00,Wunderground v.1.15,2013-07-17 14:12:00,
2013-07-17 10:17:00,84.9,74.9,30.13,WSW,256,1.0,3.0,72,0.00,,,0.00,Wunderground v.1.15,2013-07-17 14:17:00,
2013-07-17 10:23:00,85.7,73.0,30.13,WSW,256,2.0,2.0,66,0.00,,,0.00,Wunderground v.1.15,2013-07-17 14:23:00,
2013-07-17 10:29:00,86.1,73.9,30.13,WSW,243,1.0,3.0,67,0.00,,,0.00,Wunderground v.1.15,2013-07-17 14:29:00,
2013-07-17 10:34:00,86.3,73.6,30.13,North,355,1.0,2.0,66,0.00,,,0.00,Wunderground v.1.15,2013-07-17 14:34:00,
2013-07-17 10:41:00,86.3,74.5,30.13,South,180,1.0,1.0,68,0.00,,,0.00,Wunderground v.1.15,2013-07-17 14:41:00,
2013-07-17 10:47:00,86.5,73.8,30.13,West,265,1.0,3.0,66,0.00,,,0.00,Wunderground v.1.15,2013-07-17 14:47:00,
2013-07-17 10:53:00,87.4,73.3,30.13,WSW,240,2.0,2.0,63,0.00,,,0.00,Wunderground v.1.15,2013-07-17 14:53:00,
2013-07-17 10:59:00,88.2,73.0,30.13,WSW,253,2.0,4.0,61,0.00,,,0.00,Wunderground v.1.15,2013-07-17 14:59:00,
2013-07-17 11:06:00,87.8,73.6,30.13,NW,317,2.0,2.0,63,0.00,,,0.00,Wunderground v.1.15,2013-07-17 15:06:00,
2013-07-17 11:12:00,88.0,74.3,30.13,West,270,1.0,2.0,64,0.00,,,0.00,Wunderground v.1.15,2013-07-17 15:12:00,
2013-07-17 11:18:00,88.4,72.7,30.13,WSW,248,2.0,5.0,60,0.00,,,0.00,Wunderground v.1.15,2013-07-17 15:18:00,
2013-07-17 11:23:00,88.8,72.6,30.13,South,173,3.0,4.0,59,0.00,,,0.00,Wunderground v.1.15,2013-07-17 15:23:00,
2013-07-17 11:29:00,89.4,72.7,30.13,NNE,16,2.0,4.0,58,0.00,,,0.00,Wunderground v.1.15,2013-07-17 15:29:00,
2013-07-17 11:36:00,89.2,73.5,30.12,South,172,2.0,4.0,60,0.00,,,0.00,Wunderground v.1.15,2013-07-17 15:36:00,
2013-07-17 11:42:00,89.7,73.0,30.12,NNE,16,2.0,3.0,58,0.00,,,0.00,Wunderground v.1.15,2013-07-17 15:42:00,
2013-07-17 11:48:00,89.7,74.0,30.12,WNW,303,1.0,5.0,60,0.00,,,0.00,Wunderground v.1.15,2013-07-17 15:48:00,
2013-07-17 11:54:00,90.3,75.5,30.11,SSW,202,2.0,5.0,62,0.00,,,0.00,Wunderground v.1.15,2013-07-17 15:54:00,
2013-07-17 11:59:00,90.4,73.1,30.11,NNE,24,2.0,5.0,57,0.00,,,0.00,Wunderground v.1.15,2013-07-17 15:59:00,
2013-07-17 12:06:00,90.2,73.9,30.11,ESE,117,1.0,2.0,59,0.00,,,0.00,Wunderground v.1.15,2013-07-17 16:06:00,
2013-07-17 12:12:00,90.6,73.8,30.10,SSW,193,2.0,6.0,58,0.00,,,0.00,Wunderground v.1.15,2013-07-17 16:12:00,
2013-07-17 12:17:00,91.0,73.1,30.10,NE,44,3.0,6.0,56,0.00,,,0.00,Wunderground v.1.15,2013-07-17 16:17:00,
2013-07-17 12:23:00,91.2,73.3,30.10,WNW,294,2.0,3.0,56,0.00,,,0.00,Wunderground v.1.15,2013-07-17 16:23:00,
2013-07-17 12:29:00,91.7,74.8,30.10,SSW,198,2.0,4.0,58,0.00,,,0.00,Wunderground v.1.15,2013-07-17 16:29:00,
2013-07-17 12:36:00,91.7,74.8,30.10,West,263,2.0,5.0,58,0.00,,,0.00,Wunderground v.1.15,2013-07-17 16:36:00,
2013-07-17 12:42:00,91.8,73.3,30.10,SSW,206,3.0,3.0,55,0.00,,,0.00,Wunderground v.1.15,2013-07-17 16:42:00,
2013-07-17 12:48:00,92.6,73.0,30.10,SSW,201,2.0,5.0,53,0.00,,,0.00,Wunderground v.1.15,2013-07-17 16:48:00,
2013-07-17 12:54:00,92.7,74.2,30.10,South,178,2.0,3.0,55,0.00,,,0.00,Wunderground v.1.15,2013-07-17 16:54:00,
2013-07-17 13:01:00,93.4,75.4,30.10,NNE,17,2.0,2.0,56,0.00,,,0.00,Wunderground v.1.15,2013-07-17 17:01:00,
2013-07-17 13:06:00,93.4,74.3,30.10,WSW,258,2.0,4.0,54,0.00,,,0.00,Wunderground v.1.15,2013-07-17 17:06:00,
2013-07-17 13:12:00,93.2,74.1,30.09,West,271,2.0,2.0,54,0.00,,,0.00,Wunderground v.1.15,2013-07-17 17:12:00,
2013-07-17 13:17:00,93.2,75.7,30.09,SW,229,2.0,3.0,57,0.00,,,0.00,Wunderground v.1.15,2013-07-17 17:17:00,
2013-07-17 13:23:00,93.7,74.0,30.09,WNW,303,2.0,4.0,53,0.00,,,0.00,Wunderground v.1.15,2013-07-17 17:23:00,
2013-07-17 13:29:00,93.0,73.3,30.09,WNW,296,3.0,5.0,53,0.00,,,0.00,Wunderground v.1.15,2013-07-17 17:29:00,
2013-07-17 13:36:00,92.8,70.2,30.09,NW,326,2.0,3.0,48,0.00,,,0.00,Wunderground v.1.15,2013-07-17 17:36:00,
2013-07-17 13:42:00,92.7,74.2,30.09,SW,223,1.0,2.0,55,0.00,,,0.00,Wunderground v.1.15,2013-07-17 17:42:00,
2013-07-17 13:48:00,92.9,73.2,30.09,WNW,296,1.0,3.0,53,0.00,,,0.00,Wunderground v.1.15,2013-07-17 17:48:00,
2013-07-17 13:53:00,93.1,74.0,30.08,SW,229,2.0,3.0,54,0.00,,,0.00,Wunderground v.1.15,2013-07-17 17:53:00,
2013-07-17 13:59:00,93.1,73.4,30.08,South,191,2.0,4.0,53,0.00,,,0.00,Wunderground v.1.15,2013-07-17 17:59:00,
2013-07-17 14:06:00,93.0,73.9,30.08,NNE,23,1.0,3.0,54,0.00,,,0.00,Wunderground v.1.15,2013-07-17 18:06:00,
2013-07-17 14:12:00,93.1,74.0,30.08,NW,312,1.0,2.0,54,0.00,,,0.00,Wunderground v.1.15,2013-07-17 18:12:00,
2013-07-17 14:18:00,93.6,73.9,30.07,SSW,207,2.0,3.0,53,0.00,,,0.00,Wunderground v.1.15,2013-07-17 18:18:00,
2013-07-17 14:24:00,94.3,75.1,30.07,WSW,254,2.0,4.0,54,0.00,,,0.00,Wunderground v.1.15,2013-07-17 18:24:00,
2013-07-17 14:31:00,95.1,73.5,30.07,South,188,2.0,2.0,50,0.00,,,0.00,Wunderground v.1.15,2013-07-17 18:31:00,
2013-07-17 14:37:00,95.7,76.4,30.07,East,94,2.0,3.0,54,0.00,,,0.00,Wunderground v.1.15,2013-07-17 18:37:00,
2013-07-17 14:43:00,95.3,73.7,30.07,NNW,330,1.0,2.0,50,0.00,,,0.00,Wunderground v.1.15,2013-07-17 18:43:00,
2013-07-17 14:49:00,95.1,75.3,30.07,WNW,290,2.0,4.0,53,0.00,,,0.00,Wunderground v.1.15,2013-07-17 18:49:00,
2013-07-17 14:54:00,95.8,77.0,30.06,SW,227,2.0,3.0,55,0.00,,,0.00,Wunderground v.1.15,2013-07-17 18:54:00,
2013-07-17 15:01:00,95.9,74.3,30.06,SE,131,2.0,2.0,50,0.00,,,0.00,Wunderground v.1.15,2013-07-17 19:01:00,
2013-07-17 15:06:00,95.1,75.3,30.06,SSE,156,3.0,3.0,53,0.00,,,0.00,Wunderground v.1.15,2013-07-17 19:06:00,
2013-07-17 15:12:00,95.1,77.5,30.05,WSW,246,2.0,5.0,57,0.00,,,0.00,Wunderground v.1.15,2013-07-17 19:12:00,
2013-07-17 15:18:00,95.3,76.6,30.05,WNW,295,2.0,5.0,55,0.00,,,0.00,Wunderground v.1.15,2013-07-17 19:18:00,
2013-07-17 15:24:00,95.1,75.3,30.05,WNW,292,2.0,3.0,53,0.00,,,0.00,Wunderground v.1.15,2013-07-17 19:24:00,
2013-07-17 15:31:00,93.8,75.7,30.05,SSW,200,1.0,1.0,56,0.00,,,0.00,Wunderground v.1.15,2013-07-17 19:31:00,
2013-07-17 15:36:00,93.1,74.5,30.05,South,190,2.0,3.0,55,0.00,,,0.00,Wunderground v.1.15,2013-07-17 19:36:00,
2013-07-17 15:42:00,93.0,74.4,30.04,South,171,2.0,3.0,55,0.00,,,0.00,Wunderground v.1.15,2013-07-17 19:42:00,
2013-07-17 15:48:00,93.2,75.2,30.04,WSW,256,3.0,4.0,56,0.00,,,0.00,Wunderground v.1.15,2013-07-17 19:48:00,
2013-07-17 15:54:00,93.3,73.6,30.04,SSW,207,3.0,3.0,53,0.00,,,0.00,Wunderground v.1.15,2013-07-17 19:54:00,
2013-07-17 16:01:00,93.6,73.9,30.03,NW,310,3.0,3.0,53,0.00,,,0.00,Wunderground v.1.15,2013-07-17 20:01:00,
2013-07-17 16:06:00,94.1,76.0,30.03,SW,234,2.0,3.0,56,0.00,,,0.00,Wunderground v.1.15,2013-07-17 20:06:00,
2013-07-17 16:12:00,94.1,76.0,30.03,SSW,205,2.0,5.0,56,0.00,,,0.00,Wunderground v.1.15,2013-07-17 20:12:00,
2013-07-17 16:17:00,94.0,74.3,30.02,WSW,242,3.0,5.0,53,0.00,,,0.00,Wunderground v.1.15,2013-07-17 20:17:00,
2013-07-17 16:22:00,93.7,75.1,30.02,SW,236,3.0,6.0,55,0.00,,,0.00,Wunderground v.1.15,2013-07-17 20:22:00,
2013-07-17 16:28:00,93.8,73.5,30.02,SSW,192,3.0,6.0,52,0.00,,,0.00,Wunderground v.1.15,2013-07-17 20:28:00,
2013-07-17 16:34:00,93.3,73.0,30.02,West,264,3.0,3.0,52,0.00,,,0.00,Wunderground v.1.15,2013-07-17 20:34:00,
2013-07-17 16:41:00,92.8,74.8,30.02,SSW,196,2.0,2.0,56,0.00,,,0.00,Wunderground v.1.15,2013-07-17 20:41:00,
2013-07-17 16:46:00,93.3,75.8,30.02,WSW,250,1.0,2.0,57,0.00,,,0.00,Wunderground v.1.15,2013-07-17 20:46:00,
2013-07-17 16:52:00,93.8,75.7,30.02,WNW,290,2.0,2.0,56,0.00,,,0.00,Wunderground v.1.15,2013-07-17 20:52:00,
2013-07-17 16:57:00,94.0,74.3,30.02,NW,322,2.0,4.0,53,0.00,,,0.00,Wunderground v.1.15,2013-07-17 20:57:00,
2013-07-17 17:03:00,92.9,74.4,30.02,North,360,2.0,3.0,55,0.00,,,0.00,Wunderground v.1.15,2013-07-17 21:03:00,
2013-07-17 17:08:00,92.5,74.5,30.01,West,277,2.0,4.0,56,0.00,,,0.00,Wunderground v.1.15,2013-07-17 21:08:00,
2013-07-17 17:14:00,92.4,73.3,30.01,West,281,3.0,6.0,54,0.00,,,0.00,Wunderground v.1.15,2013-07-17 21:14:00,
2013-07-17 17:21:00,92.0,73.5,30.01,NW,323,2.0,4.0,55,0.00,,,0.00,Wunderground v.1.15,2013-07-17 21:21:00,
2013-07-17 17:27:00,91.8,73.9,30.01,NW,319,2.0,4.0,56,0.00,,,0.00,Wunderground v.1.15,2013-07-17 21:27:00,
2013-07-17 17:33:00,92.0,75.1,30.01,NW,308,2.0,3.0,58,0.00,,,0.00,Wunderground v.1.15,2013-07-17 21:33:00,
2013-07-17 17:39:00,92.1,75.2,30.01,SW,217,2.0,5.0,58,0.00,,,0.00,Wunderground v.1.15,2013-07-17 21:39:00,
2013-07-17 17:44:00,92.2,74.8,30.01,NW,324,2.0,4.0,57,0.00,,,0.00,Wunderground v.1.15,2013-07-17 21:44:00,
2013-07-17 17:51:00,92.3,76.4,30.00,SW,235,2.0,2.0,60,0.00,,,0.00,Wunderground v.1.15,2013-07-17 21:51:00,
2013-07-17 17:56:00,91.9,76.0,30.00,West,263,2.0,3.0,60,0.00,,,0.00,Wunderground v.1.15,2013-07-17 21:56:00,
2013-07-17 18:02:00,91.6,75.2,30.00,SSE,148,2.0,4.0,59,0.00,,,0.00,Wunderground v.1.15,2013-07-17 22:02:00,
2013-07-17 18:07:00,91.2,75.4,30.00,NE,47,2.0,4.0,60,0.00,,,0.00,Wunderground v.1.15,2013-07-17 22:07:00,
2013-07-17 18:13:00,90.9,75.6,30.00,WSW,248,2.0,5.0,61,0.00,,,0.00,Wunderground v.1.15,2013-07-17 22:13:00,
2013-07-17 18:19:00,90.6,74.8,30.00,ESE,119,2.0,5.0,60,0.00,,,0.00,Wunderground v.1.15,2013-07-17 22:19:00,
2013-07-17 18:24:00,90.3,75.5,30.00,South,190,2.0,3.0,62,0.00,,,0.00,Wunderground v.1.15,2013-07-17 22:24:00,
2013-07-17 18:31:00,90.0,75.7,29.99,West,277,1.0,1.0,63,0.00,,,0.00,Wunderground v.1.15,2013-07-17 22:31:00,
2013-07-17 18:36:00,89.8,76.5,29.99,SSW,202,1.0,2.0,65,0.00,,,0.00,Wunderground v.1.15,2013-07-17 22:36:00,
2013-07-17 18:42:00,89.7,75.9,29.99,WNW,291,2.0,3.0,64,0.00,,,0.00,Wunderground v.1.15,2013-07-17 22:42:00,
2013-07-17 18:48:00,89.3,75.5,29.98,South,178,2.0,3.0,64,0.00,,,0.00,Wunderground v.1.15,2013-07-17 22:48:00,
2013-07-17 18:53:00,89.0,75.7,29.98,South,190,2.0,3.0,65,0.00,,,0.00,Wunderground v.1.15,2013-07-17 22:53:00,
2013-07-17 18:59:00,88.5,75.2,29.98,WSW,250,2.0,3.0,65,0.00,,,0.00,Wunderground v.1.15,2013-07-17 22:59:00,
2013-07-17 19:06:00,87.8,75.5,29.98,SW,219,2.0,3.0,67,0.00,,,0.00,Wunderground v.1.15,2013-07-17 23:06:00,
2013-07-17 19:12:00,87.3,75.4,29.98,South,171,3.0,5.0,68,0.00,,,0.00,Wunderground v.1.15,2013-07-17 23:12:00,
2013-07-17 19:17:00,86.9,75.9,29.99,SSE,162,3.0,5.0,70,0.00,,,0.00,Wunderground v.1.15,2013-07-17 23:17:00,
2013-07-17 19:23:00,86.4,76.3,29.99,SW,218,2.0,3.0,72,0.00,,,0.00,Wunderground v.1.15,2013-07-17 23:23:00,
2013-07-17 19:28:00,86.1,76.4,29.99,South,172,3.0,3.0,73,0.00,,,0.00,Wunderground v.1.15,2013-07-17 23:28:00,
2013-07-17 19:34:00,85.7,76.5,29.99,SSW,207,3.0,4.0,74,0.00,,,0.00,Wunderground v.1.15,2013-07-17 23:34:00,
2013-07-17 19:39:00,85.3,76.5,29.99,South,176,3.0,6.0,75,0.00,,,0.00,Wunderground v.1.15,2013-07-17 23:39:00,
2013-07-17 19:46:00,84.9,76.5,30.00,WNW,286,3.0,4.0,76,0.00,,,0.00,Wunderground v.1.15,2013-07-17 23:46:00,
2013-07-17 19:51:00,84.5,76.1,30.00,West,266,3.0,5.0,76,0.00,,,0.00,Wunderground v.1.15,2013-07-17 23:51:00,
2013-07-17 19:56:00,84.2,75.8,30.00,WSW,238,2.0,5.0,76,0.00,,,0.00,Wunderground v.1.15,2013-07-17 23:56:00,
2013-07-17 20:02:00,83.8,75.8,30.00,South,186,2.0,2.0,77,0.00,,,0.00,Wunderground v.1.15,2013-07-18 00:02:00,
2013-07-17 20:07:00,83.6,75.6,30.00,West,281,2.0,5.0,77,0.00,,,0.00,Wunderground v.1.15,2013-07-18 00:07:00,
2013-07-17 20:12:00,83.3,75.7,30.00,WSW,241,2.0,4.0,78,0.00,,,0.00,Wunderground v.1.15,2013-07-18 00:12:00,
2013-07-17 20:18:00,83.0,75.4,30.00,SSW,199,2.0,4.0,78,0.00,,,0.00,Wunderground v.1.15,2013-07-18 00:18:00,
2013-07-17 20:24:00,82.6,75.4,30.00,West,267,2.0,5.0,79,0.00,,,0.00,Wunderground v.1.15,2013-07-18 00:24:00,
2013-07-17 20:29:00,82.3,75.1,30.00,WSW,249,2.0,5.0,79,0.00,,,0.00,Wunderground v.1.15,2013-07-18 00:29:00,
2013-07-17 20:36:00,82.1,75.3,30.00,SW,216,2.0,2.0,80,0.00,,,0.00,Wunderground v.1.15,2013-07-18 00:36:00,
2013-07-17 20:42:00,81.8,75.0,30.00,SSE,161,2.0,3.0,80,0.00,,,0.00,Wunderground v.1.15,2013-07-18 00:42:00,
2013-07-17 20:48:00,81.6,74.8,30.00,WSW,240,2.0,5.0,80,0.00,,,0.00,Wunderground v.1.15,2013-07-18 00:48:00,
2013-07-17 20:54:00,81.4,75.0,30.01,South,185,3.0,5.0,81,0.00,,,0.00,Wunderground v.1.15,2013-07-18 00:54:00,
2013-07-17 21:01:00,81.1,74.7,30.01,South,173,3.0,3.0,81,0.00,,,0.00,Wunderground v.1.15,2013-07-18 01:01:00,
2013-07-17 21:06:00,81.0,74.6,30.01,WSW,250,3.0,4.0,81,0.00,,,0.00,Wunderground v.1.15,2013-07-18 01:06:00,
2013-07-17 21:12:00,80.8,74.4,30.01,WNW,295,2.0,4.0,81,0.00,,,0.00,Wunderground v.1.15,2013-07-18 01:12:00,
2013-07-17 21:18:00,80.6,74.6,30.01,SSW,200,2.0,4.0,82,0.00,,,0.00,Wunderground v.1.15,2013-07-18 01:18:00,
2013-07-17 21:23:00,80.5,74.5,30.01,WSW,253,3.0,3.0,82,0.00,,,0.00,Wunderground v.1.15,2013-07-18 01:23:00,
2013-07-17 21:29:00,80.3,74.3,30.01,South,181,3.0,5.0,82,0.00,,,0.00,Wunderground v.1.15,2013-07-18 01:29:00,
2013-07-17 21:36:00,80.0,74.0,30.01,West,259,2.0,3.0,82,0.00,,,0.00,Wunderground v.1.15,2013-07-18 01:36:00,
2013-07-17 21:42:00,79.9,74.3,30.01,WSW,239,2.0,2.0,83,0.00,,,0.00,Wunderground v.1.15,2013-07-18 01:42:00,
2013-07-17 21:48:00,79.7,74.1,30.01,South,189,2.0,3.0,83,0.00,,,0.00,Wunderground v.1.15,2013-07-18 01:48:00,
2013-07-17 21:54:00,79.6,74.0,30.01,SE,134,2.0,2.0,83,0.00,,,0.00,Wunderground v.1.15,2013-07-18 01:54:00,
2013-07-17 21:59:00,79.4,73.8,30.01,East,82,2.0,3.0,83,0.00,,,0.00,Wunderground v.1.15,2013-07-18 01:59:00,
2013-07-17 22:06:00,79.3,73.7,30.01,WSW,244,2.0,4.0,83,0.00,,,0.00,Wunderground v.1.15,2013-07-18 02:06:00,
2013-07-17 22:12:00,79.1,73.5,30.01,WSW,240,2.0,2.0,83,0.00,,,0.00,Wunderground v.1.15,2013-07-18 02:12:00,
2013-07-17 22:17:00,79.0,73.4,30.01,WSW,256,2.0,5.0,83,0.00,,,0.00,Wunderground v.1.15,2013-07-18 02:17:00,
2013-07-17 22:23:00,78.8,73.2,30.01,SW,219,2.0,3.0,83,0.00,,,0.00,Wunderground v.1.15,2013-07-18 02:23:00,
2013-07-17 22:29:00,78.8,73.2,30.01,WNW,292,2.0,3.0,83,0.00,,,0.00,Wunderground v.1.15,2013-07-18 02:29:00,
2013-07-17 22:36:00,78.7,73.1,30.01,South,182,2.0,4.0,83,0.00,,,0.00,Wunderground v.1.15,2013-07-18 02:36:00,
2013-07-17 22:41:00,78.7,73.1,30.01,SW,218,2.0,2.0,83,0.00,,,0.00,Wunderground v.1.15,2013-07-18 02:41:00,
2013-07-17 22:47:00,78.6,73.4,30.00,SW,218,2.0,4.0,84,0.00,,,0.00,Wunderground v.1.15,2013-07-18 02:47:00,
2013-07-17 22:52:00,78.5,73.3,30.00,WNW,302,2.0,2.0,84,0.00,,,0.00,Wunderground v.1.15,2013-07-18 02:52:00,
2013-07-17 22:58:00,78.4,73.2,30.01,West,267,2.0,2.0,84,0.00,,,0.00,Wunderground v.1.15,2013-07-18 02:58:00,
2013-07-17 23:04:00,78.3,73.1,30.00,WNW,300,2.0,3.0,84,0.00,,,0.00,Wunderground v.1.15,2013-07-18 03:04:00,
2013-07-17 23:09:00,78.2,73.0,30.00,WSW,249,3.0,4.0,84,0.00,,,0.00,Wunderground v.1.15,2013-07-18 03:09:00,
2013-07-17 23:16:00,78.1,72.9,30.00,West,277,3.0,4.0,84,0.00,,,0.00,Wunderground v.1.15,2013-07-18 03:16:00,
2013-07-17 23:22:00,78.0,72.8,29.99,WSW,253,2.0,3.0,84,0.00,,,0.00,Wunderground v.1.15,2013-07-18 03:22:00,
2013-07-17 23:28:00,77.8,72.9,29.99,South,188,2.0,3.0,85,0.00,,,0.00,Wunderground v.1.15,2013-07-18 03:28:00,
2013-07-17 23:33:00,77.8,72.9,29.99,SW,234,2.0,3.0,85,0.00,,,0.00,Wunderground v.1.15,2013-07-18 03:33:00,
2013-07-17 23:39:00,77.6,72.7,29.99,SW,217,2.0,3.0,85,0.00,,,0.00,Wunderground v.1.15,2013-07-18 03:39:00,
2013-07-17 23:46:00,77.5,72.6,29.99,WSW,252,2.0,3.0,85,0.00,,,0.00,Wunderground v.1.15,2013-07-18 03:46:00,
2013-07-17 23:52:00,77.4,72.5,29.99,SSW,202,3.0,3.0,85,0.00,,,0.00,Wunderground v.1.15,2013-07-18 03:52:00,
2013-07-17 23:58:00,77.4,72.5,29.99,SW,234,3.0,5.0,85,0.00,,,0.00,Wunderground v.1.15,2013-07-18 03:58:00,